This is the latest recevied weather packets stored in our database for station/object K5KHP. If no packets are shown the sender has not sent any weather packets the latest 10 day(s).
| Time | Temp. | Humidity | Pressure | Rain* | Wind** | Luminosity | Snow |
|---|---|---|---|---|---|---|---|
| 1777775833 | 16.11° C | 89% | 1010.5 hPa | 0 mm | - | 2 W/m² | - |
| 1777775530 | 16.11° C | 89% | 1010.4 hPa | 0 mm | - | 4 W/m² | - |
| 1777775226 | 16.11° C | 88% | 1010.2 hPa | 0 mm | - | 6 W/m² | - |
| 1777774925 | 16.67° C | 87% | 1010.1 hPa | 0 mm | - | 11 W/m² | - |
| 1777774623 | 16.67° C | 87% | 1010.3 hPa | 0 mm | - | 13 W/m² | - |
| 1777774319 | 16.67° C | 86% | 1010.1 hPa | 0 mm | - | 19 W/m² | - |
| 1777774016 | 16.67° C | 86% | 1010 hPa | 0 mm | - | 22 W/m² | - |
| 1777773714 | 16.67° C | 86% | 1010.1 hPa | 0 mm | - | 25 W/m² | - |
| 1777773411 | 17.22° C | 85% | 1010 hPa | 0 mm | - | 28 W/m² | - |
| 1777773108 | 17.22° C | 85% | 1010.1 hPa | 0 mm | - | 29 W/m² | - |
| 1777772804 | 17.22° C | 85% | 1010.1 hPa | 0 mm | - | 34 W/m² | - |
| 1777772502 | 17.22° C | 84% | 1009.9 hPa | 0 mm | - | 36 W/m² | - |
| 1777772199 | 17.78° C | 83% | 1010.1 hPa | 0 mm | - | 46 W/m² | - |
| 1777771896 | 17.78° C | 81% | 1010.1 hPa | 0 mm | - | 70 W/m² | - |
| 1777771593 | 17.78° C | 82% | 1010.1 hPa | 0 mm | - | 79 W/m² | - |
| 1777771290 | 18.89° C | 79% | 1010.3 hPa | 0 mm | - | 88 W/m² | - |
| 1777770986 | 18.89° C | 79% | 1010.2 hPa | 0 mm | - | 99 W/m² | - |
| 1777770684 | 18.33° C | 80% | 1010 hPa | 0 mm | - | 106 W/m² | - |
| 1777770379 | 18.89° C | 80% | 1010.1 hPa | 0 mm | - | 121 W/m² | - |
| 1777770078 | 18.89° C | 79% | 1010.1 hPa | 0 mm | - | 126 W/m² | - |
| 1777769774 | 18.33° C | 80% | 1010 hPa | 0 mm | - | 135 W/m² | - |
| 1777769472 | 18.89° C | 79% | 1010 hPa | 0 mm | - | 150 W/m² | - |
| 1777769168 | 19.44° C | 78% | 1010.1 hPa | 0 mm | - | 164 W/m² | - |
| 1777768867 | 18.89° C | 77% | 1010.1 hPa | 0 mm | - | 177 W/m² | - |
| 1777768563 | 18.89° C | 78% | 1009.9 hPa | 0 mm | - | 187 W/m² | - |
* Rain latest hour (hover to see other rain measurements)
** Current wind speed in m/s (hover to see current wind gust speed)